Regional Weather Roundup
Issued by NWS

Home | Current Version | Previous Version | Graphics & Text | Print | Product List | Glossary On
Versions: 1 2 3 4 5 6 7 8 9 10 11 12 13 14 15 16 17 18 19 20 21 22 23 24 25 26 27 28 29 30 31 32 33 34 35 36 37 38 39 40 41 42 43 44 45 46 47 48 49 50
000
ASUS43 KIND 071309
RWRIN

WEATHER ROUNDUP FOR INDIANA
NATIONAL WEATHER SERVICE INDIANAPOLIS IN
800 AM EST WED DEC 07 2016

NOTE: "FAIR" INDICATES FEW OR NO CLOUDS BELOW 12,000 FEET WITH NO
SIGNIFICANT WEATHER AND/OR OBSTRUCTIONS TO VISIBILITY.

* - STATION DOES NOT REPORT WEATHER SUCH AS PRECIPITATION OR FOG.

+ - STATION NOT QUALITY CONTROLLED BY THE NATIONAL WEATHER SERVICE.
    USE DATA WITH CAUTION...ESPECIALLY DEWPOINT AND RELATIVE
    HUMIDITY OBSERVATIONS.

INZ001>003-010>013-019-020-071400-
NORTHWEST INDIANA

CITY           SKY/WX    TMP DP  RH WIND       PRES   REMARKS
GARY /AIRPORT/ CLOUDY    28  19  69 SW14      30.08S WCI  17
KNOX *+        MOCLDY    28   3  34 W9G17     30.07F WCI  20
LA PORTE +     CLOUDY    28  24  85 W8        30.06F WCI  20
MICHIGAN CITY+ CLOUDY    28  19  69 SW8       30.07S WCI  20
MONTICELLO +   MOCLDY    28  17  65 W7        30.10F WCI  20
RENSSELAER +     N/A     28  23  80 W6        30.09F WCI  22
VALPARAISO     MOCLDY    27  19  72 W13       30.06F WCI  16

$$

LMZ046-743>745-071400-
SOUTHERN LAKE MICHIGAN

STATION/POSITION TIME  TEMP    WIND        PRES    WAVE
                       AIR SEA DIR/SP/G            HT
                 (UTC) (F)     (DEG/KT/KT) (MB)    (FT)
BURNS HARBOR     1240   29     230/ 12/ 16 1018.6S
MICHIGAN CITY    1240   29     190/ 15/ 17   N/A

$$

INZ004-005-014>016-021>024-071400-
NORTH CENTRAL INDIANA

CITY           SKY/WX    TMP DP  RH WIND       PRES   REMARKS
ELKHART        CLOUDY    27  19  74 W10       30.05S WCI  17
GOSHEN         PTCLDY    27  18  69 W13       30.07R WCI  16
LOGANSPORT +   MOCLDY    28  21  74 W7        30.11S WCI  21
PERU/GRISSOM   PTCLDY    27  21  78 W8        30.08R WCI  19
ROCHESTER +    CLOUDY    30  23  74 W10       30.08R WCI  21
SOUTH BEND     MOCLDY    26  19  74 SW10      30.06R WCI  16
WARSAW +       PTCLDY    27  18  69 W12       30.07R WCI  16

$$

INZ006>009-017-018-025>027-071400-
NORTHEAST INDIANA

CITY           SKY/WX    TMP DP  RH WIND       PRES   REMARKS
ANGOLA *+      CLEAR     27  19  74 W7        30.03S WCI  19
AUBURN +       CLEAR     27  19  74 SW5       30.07R WCI  21
FORT WAYNE     PTCLDY    27  20  75 W10       30.08R WCI  17
HUNTINGTON +   PTCLDY    26  19  75 W6        30.09R WCI  19
KENDALLVILLE + PTCLDY    26  19  76 W14       30.05R WCI  14

$$

INZ028-029-035-036-043>045-051>053-071400-
WEST CENTRAL INDIANA

CITY           SKY/WX    TMP DP  RH WIND       PRES   REMARKS
CRAWFORDSVL +  PTCLDY    25  22  87 SW3       30.13S
GREENCASTLE +  CLEAR     25  25 100 CALM      30.15S
LAFAYETTE      CLOUDY    27  21  78 W3        30.12S
TERRE HAUTE    CLEAR     26  21  81 SW3       30.18R

$$

INZ030>032-037>040-046>048-054>057-064-065-071400-
CENTRAL INDIANA

CITY           SKY/WX    TMP DP  RH WIND       PRES   REMARKS
CP ATTERBURY + PTCLDY    23  23 100 SW3       30.17R
COLUMBUS       CLEAR     27  27 100 SW5       30.17R WCI  21
FRANKFORT +    PTCLDY    30  23  76 W8        30.13S WCI  22
GREENWOOD *+   PTCLDY    28  24  84 W5        30.15R WCI  23
INDIANAPOLIS   PTCLDY    25  21  85 SW9       30.14R WCI  15
-EAGLE CREEK   CLOUDY    27  20  75 CALM      30.13R
KOKOMO +       CLOUDY    28  22  78 W9        30.11R WCI  19
MARION +       PTCLDY    27  22  82 W8        30.11S WCI  18
MT COMFORT *+  PTCLDY    25  21  86 SW6       30.13R WCI  18
SHELBYVILLE    PTCLDY    26  21  81 W5        30.14R WCI  20
ZIONSVILLE +   PTCLDY    27  20  76 W6        30.12S WCI  20

$$

INZ033-034-041-042-049-050-058-059-071400-
EAST CENTRAL INDIANA

CITY           SKY/WX    TMP DP  RH WIND       PRES   REMARKS
MUNCIE         CLEAR     27  20  75 SW6       30.11R WCI  20

$$

INZ060-061-067>069-081>083-085>088-071400-
SOUTHWEST INDIANA

CITY           SKY/WX    TMP DP  RH WIND       PRES   REMARKS
EVANSVILLE     CLEAR     32  24  72 CALM      30.22R
HUNTINGBURG *+ PTCLDY    29  25  85 NW3       30.21R
WASHINGTON +   PTCLDY    31  26  82 W3        30.20R

$$

INZ062-063-066-070>080-084-089>092-071400-
SOUTH CENTRAL AND SOUTHEAST INDIANA

CITY           SKY/WX    TMP DP  RH WIND       PRES   REMARKS
BLOOMINGTON    CLEAR     26  21  81 W5        30.17R WCI  20
MADISON *+     CLOUDY    30  28  93 CALM      30.19R
NORTH VERNON + MOCLDY   N/A N/A N/A SW3       30.16R
SEYMOUR +      PTCLDY    28  23  80 SW3       30.17R

$$




USA.gov is the U.S. government's official web portal to all federal, state and local government web resources and services.